Time,TemperatureF,DewpointF,PressureIn,WindDirection,WindDirectionDegrees,WindSpeedMPH,WindSpeedGustMPH,Humidity,HourlyPrecipIn,Conditions,Clouds,dailyrainin,SoftwareType,DateUTC
2013-05-14 00:00:00,58.3,49.3,30.05,North,360,0.0,0.0,72,0.00,,---,0.00,VWS V14.01,2013-05-14 04:00:00,
2013-05-14 00:01:00,54.5,48.1,30.06,North,360,0.0,0.0,79,0.00,,---,0.00,VWS V14.01,2013-05-14 04:01:00,
2013-05-14 00:06:00,54.4,48.4,30.06,North,360,0.0,0.0,80,0.00,,---,0.00,VWS V14.01,2013-05-14 04:06:00,
2013-05-14 00:11:00,54.2,48.2,30.06,North,360,0.0,0.0,80,0.00,,---,0.00,VWS V14.01,2013-05-14 04:11:00,
2013-05-14 00:16:00,53.9,47.9,30.06,North,360,0.0,0.0,80,0.00,,---,0.00,VWS V14.01,2013-05-14 04:16:00,
2013-05-14 00:21:00,53.8,48.1,30.06,North,360,0.0,0.0,81,0.00,,---,0.00,VWS V14.01,2013-05-14 04:21:00,
2013-05-14 00:26:00,53.6,47.9,30.06,North,360,0.0,0.0,81,0.00,,---,0.00,VWS V14.01,2013-05-14 04:26:00,
2013-05-14 00:30:00,56.0,48.5,30.06,North,360,0.0,0.0,76,0.00,,---,0.00,VWS V14.01,2013-05-14 04:30:00,
2013-05-14 00:31:00,53.3,48.0,30.06,North,360,0.0,0.0,82,0.00,,---,0.00,VWS V14.01,2013-05-14 04:31:00,
2013-05-14 00:36:00,53.1,48.4,30.06,North,360,0.0,0.0,84,0.00,,---,0.00,VWS V14.01,2013-05-14 04:36:00,
2013-05-14 00:41:00,53.2,48.5,30.06,North,360,0.0,0.0,84,0.00,,---,0.00,VWS V14.01,2013-05-14 04:41:00,
2013-05-14 00:46:00,53.2,48.8,30.06,North,360,0.0,0.0,85,0.00,,---,0.00,VWS V14.01,2013-05-14 04:46:00,
2013-05-14 00:51:00,53.2,48.5,30.06,North,360,0.0,0.0,84,0.00,,---,0.00,VWS V14.01,2013-05-14 04:51:00,
2013-05-14 00:56:00,52.6,47.9,30.06,North,360,0.0,0.0,84,0.00,,---,0.00,VWS V14.01,2013-05-14 04:56:00,
2013-05-14 01:00:00,54.5,48.5,30.06,North,360,0.0,0.0,80,0.00,,---,0.00,VWS V14.01,2013-05-14 05:00:00,
2013-05-14 01:01:00,52.2,47.8,30.06,North,360,0.0,0.0,85,0.00,,---,0.00,VWS V14.01,2013-05-14 05:01:00,
2013-05-14 01:06:00,51.7,47.7,30.06,North,360,0.0,0.0,86,0.00,,---,0.00,VWS V14.01,2013-05-14 05:06:00,
2013-05-14 01:11:00,51.1,47.7,30.06,North,360,0.0,0.0,88,0.00,,---,0.00,VWS V14.01,2013-05-14 05:11:00,
2013-05-14 01:16:00,50.8,47.7,30.06,North,360,0.0,0.0,89,0.00,,---,0.00,VWS V14.01,2013-05-14 05:16:00,
2013-05-14 01:21:00,50.5,47.7,30.06,North,360,0.0,0.0,90,0.00,,---,0.00,VWS V14.01,2013-05-14 05:21:00,
2013-05-14 01:26:00,50.4,47.6,30.06,North,360,0.0,0.0,90,0.00,,---,0.00,VWS V14.01,2013-05-14 05:26:00,
2013-05-14 01:30:00,53.1,48.1,30.06,North,360,0.0,0.0,83,0.00,,---,0.00,VWS V14.01,2013-05-14 05:30:00,
2013-05-14 01:31:00,50.4,45.8,30.06,NNE,26,0.0,0.0,84,0.00,,---,0.00,VWS V14.01,2013-05-14 05:31:00,
2013-05-14 01:35:00,50.2,45.6,30.06,NNE,26,0.0,0.0,84,0.00,,---,0.00,VWS V14.01,2013-05-14 05:35:00,
2013-05-14 01:40:00,50.0,45.7,30.06,NNE,26,0.0,0.0,85,0.00,,---,0.00,VWS V14.01,2013-05-14 05:40:00,
2013-05-14 01:45:00,49.9,45.6,30.06,NNE,26,0.0,0.0,85,0.00,,---,0.00,VWS V14.01,2013-05-14 05:45:00,
2013-05-14 01:50:00,49.6,45.3,30.06,NNE,26,0.0,0.0,85,0.00,,---,0.00,VWS V14.01,2013-05-14 05:50:00,
2013-05-14 01:55:00,49.2,45.2,30.06,NNE,26,0.0,0.0,86,0.00,,---,0.00,VWS V14.01,2013-05-14 05:55:00,
2013-05-14 02:00:00,49.1,45.1,30.06,NNE,26,0.0,0.0,86,0.00,,---,0.00,VWS V14.01,2013-05-14 06:00:00,
2013-05-14 02:05:00,49.0,45.0,30.06,NNE,26,0.0,0.0,86,0.00,,---,0.00,VWS V14.01,2013-05-14 06:05:00,
2013-05-14 02:10:00,48.8,45.1,30.06,NNE,26,0.0,0.0,87,0.00,,---,0.00,VWS V14.01,2013-05-14 06:10:00,
2013-05-14 02:15:00,49.9,49.1,30.06,North,360,0.0,0.0,97,0.00,,---,0.00,VWS V14.01,2013-05-14 06:15:00,
2013-05-14 02:20:00,49.8,48.7,30.06,North,360,0.0,0.0,96,0.00,,---,0.00,VWS V14.01,2013-05-14 06:20:00,
2013-05-14 02:25:00,49.4,48.6,30.06,North,360,0.0,0.0,97,0.00,,---,0.00,VWS V14.01,2013-05-14 06:25:00,
2013-05-14 02:30:00,49.2,48.4,30.06,North,360,0.0,0.0,97,0.00,,---,0.00,VWS V14.01,2013-05-14 06:30:00,
2013-05-14 02:35:00,49.2,48.7,30.06,North,360,0.0,0.0,98,0.00,,---,0.00,VWS V14.01,2013-05-14 06:35:00,
2013-05-14 02:40:00,48.9,48.1,30.06,North,360,0.0,0.0,97,0.00,,---,0.00,VWS V14.01,2013-05-14 06:40:00,
2013-05-14 02:45:00,48.8,48.0,30.06,North,360,0.0,0.0,97,0.00,,---,0.00,VWS V14.01,2013-05-14 06:45:00,
2013-05-14 02:50:00,48.5,47.7,30.06,North,360,0.0,0.0,97,0.00,,---,0.00,VWS V14.01,2013-05-14 06:50:00,
2013-05-14 02:55:00,48.3,47.8,30.06,North,360,0.0,0.0,98,0.00,,---,0.00,VWS V14.01,2013-05-14 06:55:00,
2013-05-14 03:00:00,48.3,47.8,30.06,North,360,0.0,0.0,98,0.00,,---,0.00,VWS V14.01,2013-05-14 07:00:00,
2013-05-14 03:05:00,48.5,48.0,30.06,North,360,0.0,0.0,98,0.00,,---,0.00,VWS V14.01,2013-05-14 07:05:00,
2013-05-14 03:10:00,48.5,48.0,30.06,North,360,0.0,0.0,98,0.00,,---,0.00,VWS V14.01,2013-05-14 07:10:00,
2013-05-14 03:15:00,48.8,48.5,30.06,North,360,0.0,0.0,99,0.00,,---,0.00,VWS V14.01,2013-05-14 07:15:00,
2013-05-14 03:20:00,48.8,48.5,30.06,North,360,0.0,0.0,99,0.00,,---,0.00,VWS V14.01,2013-05-14 07:20:00,
2013-05-14 03:25:00,48.6,48.1,30.06,North,360,0.0,0.0,98,0.00,,---,0.00,VWS V14.01,2013-05-14 07:25:00,
2013-05-14 03:30:00,48.3,47.8,30.06,North,360,0.0,0.0,98,0.00,,---,0.00,VWS V14.01,2013-05-14 07:30:00,
2013-05-14 03:35:00,48.2,47.7,30.06,North,360,0.0,0.0,98,0.00,,---,0.00,VWS V14.01,2013-05-14 07:35:00,
2013-05-14 03:40:00,47.9,47.4,30.06,North,360,0.0,0.0,98,0.00,,---,0.00,VWS V14.01,2013-05-14 07:40:00,
2013-05-14 03:45:00,47.9,47.6,30.06,North,360,0.0,0.0,99,0.00,,---,0.00,VWS V14.01,2013-05-14 07:45:00,
2013-05-14 03:50:00,48.2,48.2,30.06,North,360,0.0,0.0,100,0.00,,---,0.00,VWS V14.01,2013-05-14 07:50:00,
2013-05-14 03:55:00,48.5,48.5,30.06,North,360,0.0,0.0,100,0.00,,---,0.00,VWS V14.01,2013-05-14 07:55:00,
2013-05-14 04:00:00,48.8,48.8,30.06,North,360,0.0,0.0,100,0.00,,---,0.00,VWS V14.01,2013-05-14 08:00:00,
2013-05-14 04:05:00,48.9,48.9,30.07,North,360,0.0,0.0,100,0.00,,---,0.00,VWS V14.01,2013-05-14 08:05:00,
2013-05-14 04:10:00,49.1,49.1,30.07,North,360,0.0,0.0,100,0.00,,---,0.00,VWS V14.01,2013-05-14 08:10:00,
2013-05-14 04:15:00,48.8,48.5,30.07,North,360,0.0,0.0,99,0.00,,---,0.00,VWS V14.01,2013-05-14 08:15:00,
2013-05-14 04:20:00,48.8,48.8,30.07,North,360,0.0,0.0,100,0.00,,---,0.00,VWS V14.01,2013-05-14 08:20:00,
2013-05-14 04:25:00,48.8,48.8,30.07,North,360,0.0,0.0,100,0.00,,---,0.00,VWS V14.01,2013-05-14 08:25:00,
2013-05-14 04:30:00,48.9,48.9,30.07,North,360,0.0,0.0,100,0.00,,---,0.00,VWS V14.01,2013-05-14 08:30:00,
2013-05-14 04:35:00,48.8,48.8,30.06,North,360,0.0,0.0,100,0.00,,---,0.00,VWS V14.01,2013-05-14 08:35:00,
2013-05-14 04:40:00,48.3,48.3,30.06,North,360,0.0,0.0,100,0.00,,---,0.00,VWS V14.01,2013-05-14 08:40:00,
2013-05-14 04:45:00,47.7,47.4,30.06,North,360,0.0,0.0,99,0.00,,---,0.00,VWS V14.01,2013-05-14 08:45:00,
2013-05-14 04:50:00,47.3,47.3,30.06,North,360,0.0,0.0,100,0.00,,---,0.00,VWS V14.01,2013-05-14 08:50:00,
2013-05-14 04:55:00,47.3,47.3,30.06,North,360,0.0,0.0,100,0.00,,---,0.00,VWS V14.01,2013-05-14 08:55:00,
2013-05-14 05:00:00,47.1,47.1,30.06,North,360,0.0,0.0,100,0.00,,---,0.00,VWS V14.01,2013-05-14 09:00:00,
2013-05-14 05:05:00,46.8,46.8,30.06,North,360,0.0,0.0,100,0.00,,---,0.00,VWS V14.01,2013-05-14 09:05:00,
2013-05-14 05:10:00,46.7,46.7,30.06,North,360,0.0,0.0,100,0.00,,---,0.00,VWS V14.01,2013-05-14 09:10:00,
2013-05-14 05:15:00,47.1,47.1,30.06,North,360,0.0,0.0,100,0.00,,---,0.00,VWS V14.01,2013-05-14 09:15:00,
2013-05-14 05:20:00,47.3,47.3,30.06,North,360,0.0,0.0,100,0.00,,---,0.00,VWS V14.01,2013-05-14 09:20:00,
2013-05-14 05:25:00,47.3,47.3,30.06,North,360,0.0,0.0,100,0.00,,---,0.00,VWS V14.01,2013-05-14 09:25:00,
2013-05-14 05:30:00,47.1,47.1,30.06,North,360,0.0,0.0,100,0.00,,---,0.00,VWS V14.01,2013-05-14 09:30:00,
2013-05-14 05:35:00,47.0,47.0,30.06,North,360,0.0,0.0,100,0.00,,---,0.00,VWS V14.01,2013-05-14 09:35:00,
2013-05-14 05:40:00,45.8,43.3,30.06,NNE,26,0.0,0.0,91,0.00,,---,0.00,VWS V14.01,2013-05-14 09:40:00,
2013-05-14 05:45:00,45.9,43.7,30.06,NNE,26,0.0,0.0,92,0.00,,---,0.00,VWS V14.01,2013-05-14 09:45:00,
2013-05-14 05:50:00,46.1,43.9,30.07,NNE,26,0.0,0.0,92,0.00,,---,0.00,VWS V14.01,2013-05-14 09:50:00,
2013-05-14 05:55:00,45.9,43.4,30.07,NNE,26,0.0,0.0,91,0.00,,---,0.00,VWS V14.01,2013-05-14 09:55:00,
2013-05-14 06:00:00,46.7,46.7,30.07,North,360,0.0,0.0,100,0.00,,---,0.00,VWS V14.01,2013-05-14 10:00:00,
2013-05-14 06:05:00,47.0,47.0,30.07,North,360,0.0,0.0,100,0.00,,---,0.00,VWS V14.01,2013-05-14 10:05:00,
2013-05-14 06:10:00,47.3,47.3,30.07,North,360,0.0,0.0,100,0.00,,---,0.00,VWS V14.01,2013-05-14 10:10:00,
2013-05-14 06:15:00,46.7,46.7,30.07,North,360,0.0,0.0,100,0.00,,---,0.00,VWS V14.01,2013-05-14 10:15:00,
2013-05-14 06:20:00,46.8,46.8,30.08,North,360,0.0,0.0,100,0.00,,---,0.00,VWS V14.01,2013-05-14 10:20:00,
2013-05-14 06:25:00,46.5,46.5,30.08,North,360,0.0,0.0,100,0.00,,---,0.00,VWS V14.01,2013-05-14 10:25:00,
2013-05-14 06:30:00,46.2,46.2,30.08,North,360,0.0,0.0,100,0.00,,---,0.00,VWS V14.01,2013-05-14 10:30:00,
2013-05-14 06:35:00,46.2,46.2,30.09,North,360,0.0,0.0,100,0.00,,---,0.00,VWS V14.01,2013-05-14 10:35:00,
2013-05-14 06:40:00,46.1,46.1,30.09,North,360,0.0,0.0,100,0.00,,---,0.00,VWS V14.01,2013-05-14 10:40:00,
2013-05-14 06:45:00,46.2,46.2,30.09,North,360,0.0,0.0,100,0.00,,---,0.00,VWS V14.01,2013-05-14 10:45:00,
2013-05-14 06:50:00,46.4,46.4,30.09,North,360,0.0,0.0,100,0.00,,---,0.00,VWS V14.01,2013-05-14 10:50:00,
2013-05-14 06:55:00,46.7,46.7,30.09,North,360,0.0,0.0,100,0.00,,---,0.00,VWS V14.01,2013-05-14 10:55:00,
2013-05-14 07:00:00,47.3,47.3,30.09,North,360,0.0,0.0,100,0.00,,---,0.00,VWS V14.01,2013-05-14 11:00:00,
2013-05-14 07:05:00,47.7,47.7,30.09,North,360,0.0,0.0,100,0.00,,---,0.00,VWS V14.01,2013-05-14 11:05:00,
2013-05-14 07:10:00,47.9,47.9,30.09,North,360,0.0,0.0,100,0.00,,---,0.00,VWS V14.01,2013-05-14 11:10:00,
2013-05-14 07:15:00,48.5,48.5,30.09,North,360,0.0,0.0,100,0.00,,---,0.00,VWS V14.01,2013-05-14 11:15:00,
2013-05-14 07:20:00,49.2,49.2,30.10,North,360,0.0,0.0,100,0.00,,---,0.00,VWS V14.01,2013-05-14 11:20:00,
2013-05-14 07:25:00,50.2,50.2,30.10,North,360,0.0,0.0,100,0.00,,---,0.00,VWS V14.01,2013-05-14 11:25:00,
2013-05-14 07:30:00,51.3,51.3,30.10,North,360,0.0,0.0,100,0.00,,---,0.00,VWS V14.01,2013-05-14 11:30:00,
2013-05-14 07:35:00,52.5,52.5,30.10,North,360,0.0,0.0,100,0.00,,---,0.00,VWS V14.01,2013-05-14 11:35:00,
2013-05-14 07:40:00,53.3,53.3,30.10,North,360,0.0,0.0,100,0.00,,---,0.00,VWS V14.01,2013-05-14 11:40:00,
2013-05-14 07:45:00,54.1,54.1,30.10,North,360,0.0,0.0,100,0.00,,---,0.00,VWS V14.01,2013-05-14 11:45:00,
2013-05-14 07:50:00,54.8,54.8,30.10,North,360,0.0,0.0,100,0.00,,---,0.00,VWS V14.01,2013-05-14 11:50:00,
2013-05-14 07:55:00,55.3,55.3,30.10,North,360,0.0,0.0,100,0.00,,---,0.00,VWS V14.01,2013-05-14 11:55:00,
2013-05-14 08:00:00,56.0,56.0,30.10,North,360,0.0,0.0,100,0.00,,---,0.00,VWS V14.01,2013-05-14 12:00:00,
2013-05-14 08:05:00,56.6,56.6,30.11,North,360,0.0,0.0,100,0.00,,---,0.00,VWS V14.01,2013-05-14 12:05:00,
2013-05-14 08:09:00,57.0,56.2,30.11,NNE,19,0.0,0.0,97,0.00,,---,0.00,VWS V14.01,2013-05-14 12:09:00,
2013-05-14 08:14:00,57.8,56.1,30.11,NNE,19,0.0,0.0,94,0.00,,---,0.00,VWS V14.01,2013-05-14 12:14:00,
2013-05-14 08:19:00,58.7,56.1,30.12,NNE,19,0.0,0.0,91,0.00,,---,0.00,VWS V14.01,2013-05-14 12:19:00,
2013-05-14 08:24:00,59.6,55.7,30.12,NNE,19,0.0,0.0,87,0.00,,---,0.00,VWS V14.01,2013-05-14 12:24:00,
2013-05-14 08:29:00,60.7,55.5,30.12,NNE,19,0.0,0.0,83,0.00,,---,0.00,VWS V14.01,2013-05-14 12:29:00,
2013-05-14 08:30:00,52.2,52.2,30.10,North,360,0.0,0.0,100,0.00,,---,0.00,VWS V14.01,2013-05-14 12:30:00,
2013-05-14 08:34:00,62.1,55.5,30.12,NNE,19,0.0,0.0,79,0.00,,---,0.00,VWS V14.01,2013-05-14 12:34:00,
2013-05-14 08:39:00,63.4,55.0,30.12,NNE,18,0.0,0.0,74,0.00,,---,0.00,VWS V14.01,2013-05-14 12:39:00,
2013-05-14 08:44:00,64.3,54.3,30.12,NNE,15,0.0,0.0,70,0.00,,---,0.00,VWS V14.01,2013-05-14 12:44:00,
2013-05-14 08:49:00,65.5,53.8,30.12,NNE,12,0.0,0.0,66,0.00,,---,0.00,VWS V14.01,2013-05-14 12:49:00,
2013-05-14 08:54:00,66.3,53.8,30.12,NNE,13,0.0,0.0,64,0.00,,---,0.00,VWS V14.01,2013-05-14 12:54:00,
2013-05-14 08:59:00,66.9,53.9,30.12,NNE,17,0.0,0.0,63,0.00,,---,0.00,VWS V14.01,2013-05-14 12:59:00,
2013-05-14 09:00:00,56.5,56.5,30.11,North,360,0.0,0.0,100,0.00,,---,0.00,VWS V14.01,2013-05-14 13:00:00,
2013-05-14 09:04:00,67.6,54.1,30.12,NNE,17,0.0,0.0,62,0.00,,---,0.00,VWS V14.01,2013-05-14 13:04:00,
2013-05-14 09:09:00,68.3,54.3,30.12,North,360,0.0,0.0,61,0.00,,---,0.00,VWS V14.01,2013-05-14 13:09:00,
2013-05-14 09:14:00,68.8,53.9,30.12,NNE,12,0.0,0.0,59,0.00,,---,0.00,VWS V14.01,2013-05-14 13:14:00,
2013-05-14 09:19:00,69.1,54.7,30.13,North,355,0.0,0.0,60,0.00,,---,0.00,VWS V14.01,2013-05-14 13:19:00,
2013-05-14 09:24:00,69.6,55.1,30.13,NNE,13,0.0,0.0,60,0.00,,---,0.00,VWS V14.01,2013-05-14 13:24:00,
2013-05-14 09:29:00,69.9,54.9,30.13,NNE,12,0.0,0.0,59,0.00,,---,0.00,VWS V14.01,2013-05-14 13:29:00,
2013-05-14 09:30:00,61.8,55.6,30.12,NNE,19,0.0,0.0,80,0.00,,---,0.00,VWS V14.01,2013-05-14 13:30:00,
2013-05-14 09:34:00,70.4,55.4,30.13,North,360,0.0,0.0,59,0.00,,---,0.00,VWS V14.01,2013-05-14 13:34:00,
2013-05-14 09:39:00,70.9,56.3,30.13,North,349,0.0,0.0,60,0.00,,---,0.00,VWS V14.01,2013-05-14 13:39:00,
2013-05-14 09:44:00,71.5,55.0,30.13,NNE,30,0.0,0.0,56,0.00,,---,0.00,VWS V14.01,2013-05-14 13:44:00,
2013-05-14 09:49:00,71.8,55.3,30.13,North,11,0.0,0.0,56,0.00,,---,0.00,VWS V14.01,2013-05-14 13:49:00,
2013-05-14 09:54:00,72.1,54.0,30.13,NNE,17,0.0,0.0,53,0.00,,---,0.00,VWS V14.01,2013-05-14 13:54:00,
2013-05-14 09:59:00,72.5,52.8,30.13,NNE,29,0.0,0.0,50,0.00,,---,0.00,VWS V14.01,2013-05-14 13:59:00,
2013-05-14 10:00:00,67.6,54.1,30.12,NNE,17,0.0,0.0,62,0.00,,---,0.00,VWS V14.01,2013-05-14 14:00:00,
2013-05-14 10:04:00,72.8,52.5,30.13,North,9,0.0,0.0,49,0.00,,---,0.00,VWS V14.01,2013-05-14 14:04:00,
2013-05-14 10:09:00,72.8,52.5,30.13,NNE,20,0.0,0.0,49,0.00,,---,0.00,VWS V14.01,2013-05-14 14:09:00,
2013-05-14 10:14:00,73.3,50.7,30.13,NNE,24,0.0,0.0,45,0.00,,---,0.00,VWS V14.01,2013-05-14 14:14:00,
2013-05-14 10:19:00,73.5,52.6,30.14,NNE,30,0.0,0.0,48,0.00,,---,0.00,VWS V14.01,2013-05-14 14:19:00,
2013-05-14 10:24:00,73.7,52.2,30.14,North,360,0.0,0.0,47,0.00,,---,0.00,VWS V14.01,2013-05-14 14:24:00,
2013-05-14 10:29:00,73.5,52.1,30.14,ENE,60,0.0,0.0,47,0.00,,---,0.00,VWS V14.01,2013-05-14 14:29:00,
2013-05-14 10:30:00,70.3,55.3,30.13,North,9,0.0,0.0,59,0.00,,---,0.00,VWS V14.01,2013-05-14 14:30:00,
2013-05-14 10:34:00,73.7,51.7,30.13,NE,49,0.0,0.0,46,0.00,,---,0.00,VWS V14.01,2013-05-14 14:34:00,
2013-05-14 10:39:00,74.2,50.3,30.13,NNE,26,0.0,0.0,43,0.00,,---,0.00,VWS V14.01,2013-05-14 14:39:00,
2013-05-14 10:44:00,74.7,52.0,30.13,NE,46,0.0,0.0,45,0.00,,---,0.00,VWS V14.01,2013-05-14 14:44:00,
2013-05-14 10:49:00,74.7,52.0,30.14,ENE,59,0.0,0.0,45,0.00,,---,0.00,VWS V14.01,2013-05-14 14:49:00,
2013-05-14 10:54:00,74.6,50.0,30.14,ENE,77,0.0,0.0,42,0.00,,---,0.00,VWS V14.01,2013-05-14 14:54:00,
2013-05-14 10:59:00,74.9,46.9,30.14,ENE,62,0.0,0.0,37,0.00,,---,0.00,VWS V14.01,2013-05-14 14:59:00,
2013-05-14 11:00:00,72.8,52.5,30.13,North,355,0.0,0.0,49,0.00,,---,0.00,VWS V14.01,2013-05-14 15:00:00,
2013-05-14 11:04:00,74.7,50.7,30.14,ENE,59,0.0,0.0,43,0.00,,---,0.00,VWS V14.01,2013-05-14 15:04:00,
2013-05-14 11:09:00,75.6,48.9,30.14,NE,52,0.0,0.0,39,0.00,,---,0.00,VWS V14.01,2013-05-14 15:09:00,
2013-05-14 11:14:00,76.1,50.0,30.14,NNE,15,0.0,0.0,40,0.00,,---,0.00,VWS V14.01,2013-05-14 15:14:00,
2013-05-14 11:19:00,76.1,50.7,30.14,NE,48,0.0,0.0,41,0.00,,---,0.00,VWS V14.01,2013-05-14 15:19:00,
2013-05-14 11:24:00,76.3,50.2,30.14,North,360,0.0,0.0,40,0.00,,---,0.00,VWS V14.01,2013-05-14 15:24:00,
2013-05-14 11:29:00,76.3,51.5,30.14,NE,44,0.0,0.0,42,0.00,,---,0.00,VWS V14.01,2013-05-14 15:29:00,
2013-05-14 11:30:00,73.7,51.7,30.13,NE,38,0.0,0.0,46,0.00,,---,0.00,VWS V14.01,2013-05-14 15:30:00,
2013-05-14 11:34:00,76.0,48.6,30.14,NNE,28,0.0,0.0,38,0.00,,---,0.00,VWS V14.01,2013-05-14 15:34:00,
2013-05-14 11:39:00,76.5,49.7,30.14,North,360,0.0,0.0,39,0.00,,---,0.00,VWS V14.01,2013-05-14 15:39:00,
2013-05-14 11:44:00,76.8,48.6,30.14,North,11,0.0,0.0,37,0.00,,---,0.00,VWS V14.01,2013-05-14 15:44:00,
2013-05-14 11:49:00,77.0,51.5,30.14,NNE,33,0.0,0.0,41,0.00,,---,0.00,VWS V14.01,2013-05-14 15:49:00,
2013-05-14 11:54:00,76.3,50.9,30.14,East,99,0.0,0.0,41,0.00,,---,0.00,VWS V14.01,2013-05-14 15:54:00,
2013-05-14 11:59:00,76.3,48.1,30.14,North,5,0.0,0.0,37,0.00,,---,0.00,VWS V14.01,2013-05-14 15:59:00,
2013-05-14 12:00:00,74.7,49.5,30.14,ENE,59,0.0,0.0,41,0.00,,---,0.00,VWS V14.01,2013-05-14 16:00:00,
2013-05-14 12:04:00,76.5,47.6,30.14,NE,34,0.0,0.0,36,0.00,,---,0.00,VWS V14.01,2013-05-14 16:04:00,
2013-05-14 12:09:00,76.8,48.6,30.14,NNW,332,0.0,0.0,37,0.00,,---,0.00,VWS V14.01,2013-05-14 16:09:00,
2013-05-14 12:14:00,77.4,49.8,30.14,NNW,333,0.0,0.0,38,0.00,,---,0.00,VWS V14.01,2013-05-14 16:14:00,
2013-05-14 12:19:00,77.7,48.7,30.13,NW,315,0.0,0.0,36,0.00,,---,0.00,VWS V14.01,2013-05-14 16:19:00,
2013-05-14 12:24:00,77.8,53.5,30.13,NE,47,5.0,11.0,43,0.00,,---,0.00,VWS V14.01,2013-05-14 16:24:00,
2013-05-14 12:29:00,77.9,54.9,30.13,NNE,16,0.0,11.0,45,0.00,,---,0.00,VWS V14.01,2013-05-14 16:29:00,
2013-05-14 12:30:00,76.0,49.3,30.14,NE,55,0.0,0.0,39,0.00,,---,0.00,VWS V14.01,2013-05-14 16:30:00,
2013-05-14 12:34:00,77.8,53.5,30.13,North,9,0.0,3.0,43,0.00,,---,0.00,VWS V14.01,2013-05-14 16:34:00,
2013-05-14 12:39:00,77.8,54.8,30.13,NNE,13,4.0,7.0,45,0.00,,---,0.00,VWS V14.01,2013-05-14 16:39:00,
2013-05-14 12:44:00,77.7,55.3,30.13,WNW,300,4.0,7.0,46,0.00,,---,0.00,VWS V14.01,2013-05-14 16:44:00,
2013-05-14 12:49:00,77.8,54.2,30.13,ENE,74,0.0,10.0,44,0.00,,---,0.00,VWS V14.01,2013-05-14 16:49:00,
2013-05-14 12:54:00,78.5,48.6,30.13,NE,37,0.0,10.0,35,0.00,,---,0.00,VWS V14.01,2013-05-14 16:54:00,
2013-05-14 12:59:00,78.3,48.4,30.13,NE,34,0.0,10.0,35,0.00,,---,0.00,VWS V14.01,2013-05-14 16:59:00,
2013-05-14 13:00:00,76.5,47.6,30.14,NE,34,0.0,0.0,36,0.00,,---,0.00,VWS V14.01,2013-05-14 17:00:00,
2013-05-14 13:04:00,78.3,49.9,30.12,ESE,117,0.0,0.0,37,0.00,,---,0.00,VWS V14.01,2013-05-14 17:04:00,
2013-05-14 13:09:00,78.6,50.2,30.12,East,88,0.0,0.0,37,0.00,,---,0.00,VWS V14.01,2013-05-14 17:09:00,
2013-05-14 13:14:00,79.2,50.7,30.12,ENE,59,0.0,0.0,37,0.00,,---,0.00,VWS V14.01,2013-05-14 17:14:00,
2013-05-14 13:19:00,78.8,47.3,30.12,NNE,31,0.0,0.0,33,0.00,,---,0.00,VWS V14.01,2013-05-14 17:19:00,
2013-05-14 13:24:00,79.0,51.2,30.12,NW,306,0.0,0.0,38,0.00,,---,0.00,VWS V14.01,2013-05-14 17:24:00,
2013-05-14 13:29:00,78.8,48.9,30.12,WSW,257,0.0,0.0,35,0.00,,---,0.00,VWS V14.01,2013-05-14 17:29:00,
2013-05-14 13:30:00,77.8,53.5,30.13,North,5,3.0,11.0,43,0.00,,---,0.00,VWS V14.01,2013-05-14 17:30:00,
2013-05-14 13:34:00,79.2,48.4,30.12,North,5,0.0,0.0,34,0.00,,---,0.00,VWS V14.01,2013-05-14 17:34:00,
2013-05-14 13:39:00,79.4,47.8,30.12,North,5,0.0,0.0,33,0.00,,---,0.00,VWS V14.01,2013-05-14 17:39:00,
2013-05-14 13:44:00,79.8,46.5,30.12,NNE,27,0.0,0.0,31,0.00,,---,0.00,VWS V14.01,2013-05-14 17:44:00,
2013-05-14 13:49:00,79.6,46.3,30.11,NW,323,0.0,0.0,31,0.00,,---,0.00,VWS V14.01,2013-05-14 17:49:00,
2013-05-14 13:54:00,79.8,49.0,30.11,NNW,333,0.0,0.0,34,0.00,,---,0.00,VWS V14.01,2013-05-14 17:54:00,
2013-05-14 13:59:00,79.9,47.4,30.11,North,5,0.0,0.0,32,0.00,,---,0.00,VWS V14.01,2013-05-14 17:59:00,
2013-05-14 14:00:00,78.3,50.6,30.12,ESE,118,0.0,10.0,38,0.00,,---,0.00,VWS V14.01,2013-05-14 18:00:00,
2013-05-14 14:04:00,79.9,47.4,30.11,NNW,347,0.0,0.0,32,0.00,,---,0.00,VWS V14.01,2013-05-14 18:04:00,
2013-05-14 14:09:00,79.8,48.2,30.11,NNW,331,0.0,0.0,33,0.00,,---,0.00,VWS V14.01,2013-05-14 18:09:00,
2013-05-14 14:14:00,79.9,46.6,30.11,NW,308,0.0,0.0,31,0.00,,---,0.00,VWS V14.01,2013-05-14 18:14:00,
2013-05-14 14:19:00,79.9,48.3,30.10,West,265,0.0,0.0,33,0.00,,---,0.00,VWS V14.01,2013-05-14 18:19:00,
2013-05-14 14:23:00,80.7,47.3,30.10,NNE,21,0.0,0.0,31,0.00,,---,0.00,VWS V14.01,2013-05-14 18:23:00,
2013-05-14 14:28:00,81.1,48.5,30.10,North,355,0.0,0.0,32,0.00,,---,0.00,VWS V14.01,2013-05-14 18:28:00,
2013-05-14 14:30:00,79.2,48.4,30.12,North,5,0.0,0.0,34,0.00,,---,0.00,VWS V14.01,2013-05-14 18:30:00,
2013-05-14 14:33:00,80.9,47.5,30.10,NNE,19,0.0,0.0,31,0.00,,---,0.00,VWS V14.01,2013-05-14 18:33:00,
2013-05-14 14:38:00,81.2,46.8,30.10,North,10,0.0,0.0,30,0.00,,---,0.00,VWS V14.01,2013-05-14 18:38:00,
2013-05-14 14:43:00,80.9,44.8,30.10,NW,325,0.0,0.0,28,0.00,,---,0.00,VWS V14.01,2013-05-14 18:43:00,
2013-05-14 14:48:00,81.2,45.0,30.09,WNW,284,0.0,0.0,28,0.00,,---,0.00,VWS V14.01,2013-05-14 18:48:00,
2013-05-14 14:53:00,81.4,44.2,30.09,WNW,292,0.0,0.0,27,0.00,,---,0.00,VWS V14.01,2013-05-14 18:53:00,
2013-05-14 14:58:00,81.6,45.4,30.09,North,355,0.0,0.0,28,0.00,,---,0.00,VWS V14.01,2013-05-14 18:58:00,
2013-05-14 15:00:00,79.9,47.4,30.11,NNW,347,0.0,0.0,32,0.00,,---,0.00,VWS V14.01,2013-05-14 19:00:00,
2013-05-14 15:03:00,82.0,44.8,30.09,NW,323,0.0,0.0,27,0.00,,---,0.00,VWS V14.01,2013-05-14 19:03:00,
2013-05-14 15:08:00,82.0,44.8,30.09,NW,323,0.0,0.0,27,0.00,,---,0.00,VWS V14.01,2013-05-14 19:08:00,
2013-05-14 15:13:00,82.2,44.9,30.09,NNW,343,0.0,0.0,27,0.00,,---,0.00,VWS V14.01,2013-05-14 19:13:00,
2013-05-14 15:18:00,82.2,45.9,30.08,NNW,346,0.0,0.0,28,0.00,,---,0.00,VWS V14.01,2013-05-14 19:18:00,
2013-05-14 15:23:00,82.0,45.7,30.08,NNE,29,0.0,0.0,28,0.00,,---,0.00,VWS V14.01,2013-05-14 19:23:00,
2013-05-14 15:28:00,82.1,52.5,30.08,NE,41,3.0,5.0,36,0.00,,---,0.00,VWS V14.01,2013-05-14 19:28:00,
2013-05-14 15:30:00,80.9,47.5,30.10,NNE,19,0.0,0.0,31,0.00,,---,0.00,VWS V14.01,2013-05-14 19:30:00,
2013-05-14 15:33:00,82.2,51.8,30.08,North,5,4.0,9.0,35,0.00,,---,0.00,VWS V14.01,2013-05-14 19:33:00,
2013-05-14 15:38:00,81.6,51.3,30.08,NNW,333,4.0,10.0,35,0.00,,---,0.00,VWS V14.01,2013-05-14 19:38:00,
2013-05-14 15:43:00,81.5,49.7,30.08,NE,37,2.0,10.0,33,0.00,,---,0.00,VWS V14.01,2013-05-14 19:43:00,
2013-05-14 15:48:00,81.8,51.5,30.07,North,10,2.0,10.0,35,0.00,,---,0.00,VWS V14.01,2013-05-14 19:48:00,
2013-05-14 15:53:00,81.2,44.1,30.07,NE,47,0.0,10.0,27,0.00,,---,0.00,VWS V14.01,2013-05-14 19:53:00,
2013-05-14 15:58:00,81.4,45.2,30.07,ENE,75,0.0,10.0,28,0.00,,---,0.00,VWS V14.01,2013-05-14 19:58:00,
2013-05-14 16:00:00,82.0,44.8,30.09,NW,320,0.0,0.0,27,0.00,,---,0.00,VWS V14.01,2013-05-14 20:00:00,
2013-05-14 16:03:00,81.6,46.3,30.07,East,86,0.0,10.0,29,0.00,,---,0.00,VWS V14.01,2013-05-14 20:03:00,
2013-05-14 16:08:00,82.2,45.9,30.07,NE,55,0.0,0.0,28,0.00,,---,0.00,VWS V14.01,2013-05-14 20:08:00,
2013-05-14 16:13:00,82.2,46.8,30.07,NE,36,0.0,0.0,29,0.00,,---,0.00,VWS V14.01,2013-05-14 20:13:00,
2013-05-14 16:18:00,81.8,45.5,30.06,NNW,333,0.0,0.0,28,0.00,,---,0.00,VWS V14.01,2013-05-14 20:18:00,
2013-05-14 16:23:00,82.2,45.9,30.06,North,350,0.0,0.0,28,0.00,,---,0.00,VWS V14.01,2013-05-14 20:23:00,
2013-05-14 16:28:00,82.2,46.8,30.06,NNW,330,0.0,0.0,29,0.00,,---,0.00,VWS V14.01,2013-05-14 20:28:00,
2013-05-14 16:30:00,82.2,53.4,30.08,NNW,338,7.0,9.0,37,0.00,,---,0.00,VWS V14.01,2013-05-14 20:30:00,
2013-05-14 16:33:00,82.2,46.8,30.06,NNE,26,0.0,0.0,29,0.00,,---,0.00,VWS V14.01,2013-05-14 20:33:00,
2013-05-14 16:38:00,82.4,47.0,30.06,ENE,61,0.0,0.0,29,0.00,,---,0.00,VWS V14.01,2013-05-14 20:38:00,
2013-05-14 16:43:00,81.8,45.5,30.06,NE,46,0.0,0.0,28,0.00,,---,0.00,VWS V14.01,2013-05-14 20:43:00,
2013-05-14 16:48:00,82.0,47.5,30.06,NE,43,0.0,0.0,30,0.00,,---,0.00,VWS V14.01,2013-05-14 20:48:00,
2013-05-14 16:53:00,82.4,46.1,30.06,NE,40,0.0,0.0,28,0.00,,---,0.00,VWS V14.01,2013-05-14 20:53:00,
2013-05-14 16:58:00,82.6,47.2,30.06,NNE,12,0.0,0.0,29,0.00,,---,0.00,VWS V14.01,2013-05-14 20:58:00,
2013-05-14 17:00:00,81.6,46.3,30.07,East,86,0.0,10.0,29,0.00,,---,0.00,VWS V14.01,2013-05-14 21:00:00,
2013-05-14 17:03:00,82.2,45.9,30.06,NE,34,0.0,0.0,28,0.00,,---,0.00,VWS V14.01,2013-05-14 21:03:00,
2013-05-14 17:08:00,82.2,46.8,30.06,NNE,21,0.0,0.0,29,0.00,,---,0.00,VWS V14.01,2013-05-14 21:08:00,
2013-05-14 17:13:00,82.4,47.9,30.06,North,9,0.0,0.0,30,0.00,,---,0.00,VWS V14.01,2013-05-14 21:13:00,
2013-05-14 17:18:00,82.6,49.8,30.06,NE,34,0.0,0.0,32,0.00,,---,0.00,VWS V14.01,2013-05-14 21:18:00,
2013-05-14 17:23:00,82.4,46.1,30.06,NNW,329,0.0,0.0,28,0.00,,---,0.00,VWS V14.01,2013-05-14 21:23:00,
2013-05-14 17:28:00,82.2,48.6,30.06,NNE,29,0.0,0.0,31,0.00,,---,0.00,VWS V14.01,2013-05-14 21:28:00,
2013-05-14 17:30:00,82.2,46.8,30.06,NNE,26,0.0,0.0,29,0.00,,---,0.00,VWS V14.01,2013-05-14 21:30:00,
2013-05-14 17:33:00,81.6,47.2,30.06,NE,40,0.0,0.0,30,0.00,,---,0.00,VWS V14.01,2013-05-14 21:33:00,
2013-05-14 17:38:00,81.8,47.4,30.06,NE,40,0.0,0.0,30,0.00,,---,0.00,VWS V14.01,2013-05-14 21:38:00,
2013-05-14 17:43:00,82.0,44.8,30.06,NE,34,0.0,0.0,27,0.00,,---,0.00,VWS V14.01,2013-05-14 21:43:00,
2013-05-14 17:48:00,82.0,46.6,30.05,NNE,33,0.0,0.0,29,0.00,,---,0.00,VWS V14.01,2013-05-14 21:48:00,
2013-05-14 17:53:00,82.6,46.2,30.05,NNE,33,0.0,0.0,28,0.00,,---,0.00,VWS V14.01,2013-05-14 21:53:00,
2013-05-14 17:58:00,82.2,47.7,30.05,NNE,13,0.0,0.0,30,0.00,,---,0.00,VWS V14.01,2013-05-14 21:58:00,
2013-05-14 18:00:00,82.2,45.9,30.06,NE,34,0.0,0.0,28,0.00,,---,0.00,VWS V14.01,2013-05-14 22:00:00,
2013-05-14 18:03:00,82.2,46.8,30.04,NNE,19,0.0,0.0,29,0.00,,---,0.00,VWS V14.01,2013-05-14 22:03:00,
2013-05-14 18:08:00,82.0,47.5,30.04,NE,38,0.0,0.0,30,0.00,,---,0.00,VWS V14.01,2013-05-14 22:08:00,
2013-05-14 18:13:00,81.8,47.4,30.04,NNE,32,0.0,0.0,30,0.00,,---,0.00,VWS V14.01,2013-05-14 22:13:00,
2013-05-14 18:18:00,81.4,47.9,30.04,NE,38,0.0,0.0,31,0.00,,---,0.00,VWS V14.01,2013-05-14 22:18:00,
2013-05-14 18:23:00,81.4,47.0,30.04,North,11,0.0,0.0,30,0.00,,---,0.00,VWS V14.01,2013-05-14 22:23:00,
2013-05-14 18:28:00,81.4,46.1,30.04,NNE,12,0.0,0.0,29,0.00,,---,0.00,VWS V14.01,2013-05-14 22:28:00,
2013-05-14 18:30:00,81.6,46.3,30.06,NE,40,0.0,0.0,29,0.00,,---,0.00,VWS V14.01,2013-05-14 22:30:00,
2013-05-14 18:33:00,81.4,47.0,30.04,NNE,12,0.0,0.0,30,0.00,,---,0.00,VWS V14.01,2013-05-14 22:33:00,
2013-05-14 18:38:00,80.9,48.3,30.04,ENE,63,0.0,0.0,32,0.00,,---,0.00,VWS V14.01,2013-05-14 22:38:00,
2013-05-14 18:43:00,80.5,54.0,30.04,ENE,71,0.0,0.0,40,0.00,,---,0.00,VWS V14.01,2013-05-14 22:43:00,
2013-05-14 18:48:00,79.9,54.1,30.04,ENE,76,0.0,0.0,41,0.00,,---,0.00,VWS V14.01,2013-05-14 22:48:00,
2013-05-14 18:53:00,79.2,54.8,30.04,East,101,0.0,0.0,43,0.00,,---,0.00,VWS V14.01,2013-05-14 22:53:00,
2013-05-14 18:58:00,78.5,54.8,30.04,East,98,0.0,0.0,44,0.00,,---,0.00,VWS V14.01,2013-05-14 22:58:00,
2013-05-14 19:00:00,82.2,47.7,30.04,NNE,19,0.0,0.0,30,0.00,,---,0.00,VWS V14.01,2013-05-14 23:00:00,
2013-05-14 19:03:00,78.1,54.4,30.04,East,101,0.0,0.0,44,0.00,,---,0.00,VWS V14.01,2013-05-14 23:03:00,
2013-05-14 19:08:00,77.7,54.7,30.04,East,89,0.0,0.0,45,0.00,,---,0.00,VWS V14.01,2013-05-14 23:08:00,
2013-05-14 19:13:00,77.6,54.6,30.04,East,82,0.0,0.0,45,0.00,,---,0.00,VWS V14.01,2013-05-14 23:13:00,
2013-05-14 19:18:00,77.2,55.4,30.05,ENE,71,0.0,0.0,47,0.00,,---,0.00,VWS V14.01,2013-05-14 23:18:00,
2013-05-14 19:23:00,76.7,55.5,30.05,East,101,0.0,0.0,48,0.00,,---,0.00,VWS V14.01,2013-05-14 23:23:00,
2013-05-14 19:28:00,76.3,55.2,30.05,East,82,0.0,0.0,48,0.00,,---,0.00,VWS V14.01,2013-05-14 23:28:00,
2013-05-14 19:30:00,81.2,46.8,30.04,NNE,27,0.0,0.0,30,0.00,,---,0.00,VWS V14.01,2013-05-14 23:30:00,
2013-05-14 19:33:00,76.1,55.0,30.06,ENE,64,0.0,0.0,48,0.00,,---,0.00,VWS V14.01,2013-05-14 23:33:00,
2013-05-14 19:38:00,75.8,54.7,30.06,East,80,0.0,0.0,48,0.00,,---,0.00,VWS V14.01,2013-05-14 23:38:00,
2013-05-14 19:43:00,75.6,55.1,30.06,ENE,78,0.0,0.0,49,0.00,,---,0.00,VWS V14.01,2013-05-14 23:43:00,
2013-05-14 19:48:00,75.3,55.4,30.06,East,88,0.0,0.0,50,0.00,,---,0.00,VWS V14.01,2013-05-14 23:48:00,
2013-05-14 19:53:00,74.9,55.6,30.06,East,94,0.0,0.0,51,0.00,,---,0.00,VWS V14.01,2013-05-14 23:53:00,
2013-05-14 19:58:00,74.4,55.7,30.06,East,98,0.0,0.0,52,0.00,,---,0.00,VWS V14.01,2013-05-14 23:58:00,
2013-05-14 20:00:00,78.1,55.0,30.04,East,98,0.0,0.0,45,0.00,,---,0.00,VWS V14.01,2013-05-15 00:00:00,
2013-05-14 20:03:00,74.0,55.3,30.06,East,80,0.0,0.0,52,0.00,,---,0.00,VWS V14.01,2013-05-15 00:03:00,
2013-05-14 20:08:00,73.7,55.5,30.06,ENE,76,0.0,0.0,53,0.00,,---,0.00,VWS V14.01,2013-05-15 00:08:00,
2013-05-14 20:13:00,73.5,55.3,30.06,East,82,0.0,0.0,53,0.00,,---,0.00,VWS V14.01,2013-05-15 00:13:00,
2013-05-14 20:18:00,73.0,55.4,30.06,East,81,0.0,0.0,54,0.00,,---,0.00,VWS V14.01,2013-05-15 00:18:00,
2013-05-14 20:23:00,72.7,55.6,30.07,East,81,0.0,0.0,55,0.00,,---,0.00,VWS V14.01,2013-05-15 00:23:00,
2013-05-14 20:27:00,72.3,55.7,30.07,East,81,0.0,0.0,56,0.00,,---,0.00,VWS V14.01,2013-05-15 00:27:00,
2013-05-14 20:30:00,76.1,55.0,30.06,ENE,72,0.0,0.0,48,0.00,,---,0.00,VWS V14.01,2013-05-15 00:30:00,
2013-05-14 20:32:00,71.6,55.6,30.07,East,81,0.0,0.0,57,0.00,,---,0.00,VWS V14.01,2013-05-15 00:32:00,
2013-05-14 20:37:00,71.1,56.1,30.08,East,81,0.0,0.0,59,0.00,,---,0.00,VWS V14.01,2013-05-15 00:37:00,
2013-05-14 20:42:00,70.8,55.8,30.08,East,81,0.0,0.0,59,0.00,,---,0.00,VWS V14.01,2013-05-15 00:42:00,
2013-05-14 20:47:00,70.3,55.8,30.08,East,81,0.0,0.0,60,0.00,,---,0.00,VWS V14.01,2013-05-15 00:47:00,
2013-05-14 20:52:00,70.1,55.6,30.08,East,81,0.0,0.0,60,0.00,,---,0.00,VWS V14.01,2013-05-15 00:52:00,
2013-05-14 20:57:00,69.4,55.8,30.08,East,81,0.0,0.0,62,0.00,,---,0.00,VWS V14.01,2013-05-15 00:57:00,
2013-05-14 21:00:00,74.0,55.3,30.06,East,81,0.0,0.0,52,0.00,,---,0.00,VWS V14.01,2013-05-15 01:00:00,
2013-05-14 21:02:00,68.8,56.1,30.08,East,81,0.0,0.0,64,0.00,,---,0.00,VWS V14.01,2013-05-15 01:02:00,
2013-05-14 21:07:00,68.8,55.7,30.09,East,81,0.0,0.0,63,0.00,,---,0.00,VWS V14.01,2013-05-15 01:07:00,
2013-05-14 21:12:00,68.4,55.8,30.09,East,81,0.0,0.0,64,0.00,,---,0.00,VWS V14.01,2013-05-15 01:12:00,
2013-05-14 21:17:00,68.3,56.1,30.09,East,81,0.0,0.0,65,0.00,,---,0.00,VWS V14.01,2013-05-15 01:17:00,
2013-05-14 21:22:00,68.3,56.1,30.10,East,81,0.0,0.0,65,0.00,,---,0.00,VWS V14.01,2013-05-15 01:22:00,
2013-05-14 21:27:00,68.4,55.8,30.10,East,81,0.0,0.0,64,0.00,,---,0.00,VWS V14.01,2013-05-15 01:27:00,
2013-05-14 21:30:00,71.5,56.0,30.08,East,81,0.0,0.0,58,0.00,,---,0.00,VWS V14.01,2013-05-15 01:30:00,
2013-05-14 21:32:00,68.1,55.9,30.10,East,81,0.0,0.0,65,0.00,,---,0.00,VWS V14.01,2013-05-15 01:32:00,
2013-05-14 21:37:00,67.6,55.8,30.10,East,81,0.0,0.0,66,0.00,,---,0.00,VWS V14.01,2013-05-15 01:37:00,
2013-05-14 21:42:00,67.6,56.3,30.10,East,81,0.0,0.0,67,0.00,,---,0.00,VWS V14.01,2013-05-15 01:42:00,
2013-05-14 21:47:00,67.8,56.0,30.10,East,81,0.0,0.0,66,0.00,,---,0.00,VWS V14.01,2013-05-15 01:47:00,
2013-05-14 21:52:00,67.9,56.1,30.11,East,81,0.0,0.0,66,0.00,,---,0.00,VWS V14.01,2013-05-15 01:52:00,
2013-05-14 21:57:00,67.9,56.1,30.11,ENE,78,0.0,0.0,66,0.00,,---,0.00,VWS V14.01,2013-05-15 01:57:00,
2013-05-14 22:00:00,68.6,56.0,30.09,East,81,0.0,0.0,64,0.00,,---,0.00,VWS V14.01,2013-05-15 02:00:00,
2013-05-14 22:02:00,67.4,56.5,30.11,ENE,78,0.0,0.0,68,0.00,,---,0.00,VWS V14.01,2013-05-15 02:02:00,
2013-05-14 22:07:00,66.9,56.0,30.11,ENE,78,0.0,0.0,68,0.00,,---,0.00,VWS V14.01,2013-05-15 02:07:00,
2013-05-14 22:12:00,66.3,56.2,30.11,ENE,78,0.0,0.0,70,0.00,,---,0.00,VWS V14.01,2013-05-15 02:12:00,
2013-05-14 22:17:00,66.1,56.0,30.11,ENE,78,0.0,0.0,70,0.00,,---,0.00,VWS V14.01,2013-05-15 02:17:00,
2013-05-14 22:22:00,66.1,56.0,30.12,ENE,78,0.0,0.0,70,0.00,,---,0.00,VWS V14.01,2013-05-15 02:22:00,
2013-05-14 22:27:00,66.0,56.3,30.12,ENE,78,0.0,0.0,71,0.00,,---,0.00,VWS V14.01,2013-05-15 02:27:00,
2013-05-14 22:30:00,67.9,56.1,30.10,East,81,0.0,0.0,66,0.00,,---,0.00,VWS V14.01,2013-05-15 02:30:00,
2013-05-14 22:32:00,65.8,56.2,30.12,ENE,78,0.0,0.0,71,0.00,,---,0.00,VWS V14.01,2013-05-15 02:32:00,
2013-05-14 22:37:00,65.6,56.0,30.12,ENE,78,0.0,0.0,71,0.00,,---,0.00,VWS V14.01,2013-05-15 02:37:00,
2013-05-14 22:42:00,65.6,56.0,30.12,ENE,78,0.0,0.0,71,0.00,,---,0.00,VWS V14.01,2013-05-15 02:42:00,
2013-05-14 22:47:00,65.2,56.0,30.12,ENE,78,0.0,0.0,72,0.00,,---,0.00,VWS V14.01,2013-05-15 02:47:00,
2013-05-14 22:52:00,64.8,56.0,30.12,ENE,78,0.0,0.0,73,0.00,,---,0.00,VWS V14.01,2013-05-15 02:52:00,
2013-05-14 22:57:00,64.7,55.9,30.12,ENE,78,0.0,0.0,73,0.00,,---,0.00,VWS V14.01,2013-05-15 02:57:00,
2013-05-14 23:00:00,67.3,56.4,30.11,ENE,78,0.0,0.0,68,0.00,,---,0.00,VWS V14.01,2013-05-15 03:00:00,
2013-05-14 23:02:00,64.0,55.6,30.12,ENE,78,0.0,0.0,74,0.00,,---,0.00,VWS V14.01,2013-05-15 03:02:00,
2013-05-14 23:07:00,62.9,55.2,30.12,ENE,78,0.0,0.0,76,0.00,,---,0.00,VWS V14.01,2013-05-15 03:07:00,
2013-05-14 23:12:00,62.0,55.4,30.12,ENE,78,0.0,0.0,79,0.00,,---,0.00,VWS V14.01,2013-05-15 03:12:00,
2013-05-14 23:17:00,61.2,55.3,30.12,ENE,78,0.0,0.0,81,0.00,,---,0.00,VWS V14.01,2013-05-15 03:17:00,
2013-05-14 23:22:00,60.9,55.7,30.12,ENE,78,0.0,0.0,83,0.00,,---,0.00,VWS V14.01,2013-05-15 03:22:00,
2013-05-14 23:27:00,60.9,54.0,30.12,ESE,103,0.0,0.0,78,0.00,,---,0.00,VWS V14.01,2013-05-15 03:27:00,
2013-05-14 23:30:00,65.8,56.2,30.12,ENE,78,0.0,0.0,71,0.00,,---,0.00,VWS V14.01,2013-05-15 03:30:00,
2013-05-14 23:32:00,60.5,53.6,30.12,ESE,103,0.0,0.0,78,0.00,,---,0.00,VWS V14.01,2013-05-15 03:32:00,
2013-05-14 23:37:00,60.2,53.7,30.12,ESE,103,0.0,0.0,79,0.00,,---,0.00,VWS V14.01,2013-05-15 03:37:00,
2013-05-14 23:42:00,59.7,53.2,30.12,ESE,103,0.0,0.0,79,0.00,,---,0.00,VWS V14.01,2013-05-15 03:42:00,
2013-05-14 23:47:00,59.4,53.2,30.12,ESE,103,0.0,0.0,80,0.00,,---,0.00,VWS V14.01,2013-05-15 03:47:00,
2013-05-14 23:52:00,59.2,53.4,30.12,ESE,103,0.0,0.0,81,0.00,,---,0.00,VWS V14.01,2013-05-15 03:52:00,
2013-05-14 23:57:00,59.0,53.2,30.12,ESE,103,0.0,0.0,81,0.00,,---,0.00,VWS V14.01,2013-05-15 03:57:00,